Location: Eferding
(48.3167°N, 14.0167°E)
Time: 16:25:18
(UTC+00:00)

Cosmos 1862 - Pass Details

Date: 12 November 2019
Orbit: 538 x 557 km, 82.5° (Epoch: 07 December)

Event Time Altitude Azimuth Distance (km) Brightness Sun altitude
Rises 17:50:20 0° 347° (NNW) 2,706 7.0 -23.4°
Reaches altitude 10° 17:52:31 10° 344° (NNW) 1,810 6.1 -23.8°
Maximum altitude 17:56:27 63° 264° (W) 607 3.6 -24.4°
Enters shadow 17:57:24 46° 206° (SSW) 736 4.0 -24.6°
